This is the latest recevied weather packets stored in our database for station/object KD5FHA. If no packets are shown the sender has not sent any weather packets the latest 10 day(s).
| Time | Temp. | Humidity | Pressure | Rain* | Wind** | Luminosity | Snow |
|---|---|---|---|---|---|---|---|
| 1777743183 | 22.78° C | 42% | 1022.6 hPa | 0 mm | - | 893 W/m² | - |
| 1777742881 | 23.89° C | 38% | 1022.7 hPa | 0 mm | - | 890 W/m² | - |
| 1777742577 | 22.78° C | 37% | 1022.8 hPa | 0 mm | - | 884 W/m² | - |
| 1777742273 | 23.33° C | 40% | 1022.8 hPa | 0 mm | - | 880 W/m² | - |
| 1777741969 | 22.78° C | 40% | 1023 hPa | 0 mm | - | 858 W/m² | - |
| 1777741666 | 23.89° C | 43% | 1022.9 hPa | 0 mm | - | 865 W/m² | - |
| 1777741363 | 22.22° C | 45% | 1023 hPa | 0 mm | - | 823 W/m² | - |
| 1777741059 | 22.78° C | 43% | 1023.1 hPa | 0 mm | - | 811 W/m² | - |
| 1777740756 | 22.22° C | 44% | 1023.1 hPa | 0 mm | - | 800 W/m² | - |
| 1777740452 | 23.33° C | 43% | 1023 hPa | 0 mm | - | 794 W/m² | - |
| 1777740151 | 22.78° C | 43% | 1023 hPa | 0 mm | - | 693 W/m² | - |
| 1777739846 | 21.11° C | 47% | 1023 hPa | 0 mm | - | 664 W/m² | - |
| 1777739543 | 21.11° C | 47% | 1023.1 hPa | 0 mm | - | 658 W/m² | - |
| 1777739240 | 21.11° C | 47% | 1022.8 hPa | 0 mm | - | 649 W/m² | - |
| 1777738936 | 20.56° C | 49% | 1022.9 hPa | 0 mm | - | 648 W/m² | - |
| 1777738634 | 20.56° C | 50% | 1022.8 hPa | 0 mm | - | 648 W/m² | - |
| 1777738330 | 21.11° C | 49% | 1022.9 hPa | 0 mm | - | 649 W/m² | - |
| 1777738028 | 20.56° C | 48% | 1022.9 hPa | 0 mm | - | 646 W/m² | - |
| 1777737727 | 20.56° C | 49% | 1022.7 hPa | 0 mm | - | 635 W/m² | - |
| 1777737425 | 20° C | 49% | 1022.9 hPa | 0 mm | - | 635 W/m² | - |
| 1777737122 | 20° C | 54% | 1022.9 hPa | 0 mm | - | 635 W/m² | - |
| 1777736818 | 20° C | 50% | 1022.8 hPa | 0 mm | - | 639 W/m² | - |
| 1777736189 | 19.44° C | 53% | 1022.7 hPa | 0 mm | - | 641 W/m² | - |
| 1777735886 | 19.44° C | 57% | 1022.6 hPa | 0 mm | - | 429 W/m² | - |
| 1777735584 | 19.44° C | 60% | 1022.8 hPa | 0 mm | - | 87 W/m² | - |
* Rain latest hour (hover to see other rain measurements)
** Current wind speed in m/s (hover to see current wind gust speed)